This demonstration page uses our WeatherBlox Daily Observations layout. Learn more.

Left ArrowRight Arrow

Hourly Observations for December 18, 2015

Temp ( °F °C ) Dew Point ( °F °C ) Humidity (%) Winds ( mph kmh ) Pressure ( in mb ) Visibility ( mi km ) Precip ( " mm )
12:58 am 00:58 Clear 23 -5.2 14 -9.9 70 70 W 8 13 30.15 1021 10 16 0.00 0.00
1:58 am 01:58 Clear 22 -5.7 14 -9.8 73 73 W 8 13 30.15 1021 10 16 0.00 0.00
2:58 am 02:58 Clear 21 -6 14 -10 74 74 WSW 7 11 30.15 1021 10 16 0.00 0.00
3:55 am 03:55 Mostly Clear 19 -7 14 -10 79 79 WNW 5 7 30.12 1020 10 16 0.00 0.00
3:58 am 03:58 Clear 20 -6.8 15 -9.6 81 81 WNW 5 7 30.13 1020 10 16 0.00 0.00
4:58 am 04:58 Clear 21 -6.1 15 -9.3 78 78 SW 6 9 30.12 1020 10 16 0.00 0.00
5:58 am 05:58 Clear 21 -6 15 -9.6 76 76 SW 7 11 30.09 1019 10 16 0.00 0.00
6:58 am 06:58 Clear 21 -6 14 -10 74 74 WSW 8 13 30.09 1019 10 16 0.00 0.00
7:58 am 07:58 Sunny 21 -6 14 -10 74 74 WSW 12 19 30.11 1020 10 16 0.00 0.00
8:58 am 08:58 Sunny 23 -4.8 14 -9.8 68 68 W 10 17 30.11 1020 10 16 0.00 0.00
9:58 am 09:58 Sunny 26 -3.2 15 -9.7 61 61 W 13 20 30.13 1020 10 16 0.00 0.00
10:58 am 10:58 Sunny 30 -1 16 -9.1 55 55 W 13 20 30.14 1021 10 16 0.00 0.00
11:58 am 11:58 Sunny 34 1.1 15 -9.6 45 45 W 12 19 30.13 1020 10 16 0.00 0.00
12:58 pm 12:58 Sunny 37 2.5 13 -10.3 39 39 WNW 17 28 30.13 1020 10 16 0.00 0.00
1:58 pm 13:58 Sunny 37 2.6 13 -10.3 38 38 W 13 20 30.13 1020 10 16 0.00 0.00
2:58 pm 14:58 Sunny 36 2.2 13 -10.7 38 38 W 15 24 30.15 1021 10 16 0.00 0.00
3:58 pm 15:58 Sunny 34 1.2 13 -10.3 42 42 NW 15 24 30.18 1022 10 16 0.00 0.00
4:58 pm 16:58 Clear 31 -0.7 14 -10 50 50 NW 10 17 30.21 1023 10 16 0.00 0.00
5:58 pm 17:58 Clear 28 -2.3 15 -9.6 58 58 NNW 8 13 30.24 1024 10 16 0.00 0.00
6:58 pm 18:58 Clear 24 -4.5 14 -9.9 66 66 NW 6 9 30.28 1025 10 16 0.00 0.00
7:58 pm 19:58 Clear 21 -5.9 13 -10.8 69 69 NW 5 7 30.30 1026 10 16 0.00 0.00
8:58 pm 20:58 Clear 22 -5.5 13 -10.5 68 68 N 7 11 30.36 1028 10 16 0.00 0.00
9:58 pm 21:58 Clear 21 -5.9 14 -10.2 72 72 N 6 9 30.36 1028 10 16 0.00 0.00
10:58 pm 22:58 Clear 20 -6.5 15 -9.7 78 78 NNE 6 9 30.33 1027 10 16 0.00 0.00
11:58 pm 23:58 Clear 20 -6.7 13 -10.5 75 75 N 5 7 30.33 1027 10 16 0.00 0.00

Powered by AerisWeather